Date String (YYYY-MM-DD hh:mm:ss) UTC,Instrument flags,Ambient pressure (hPa),Sample flow (lpm),Bypass flow (lpm),Sample temperature (°C),Ambient temperature (°C),ASC tube jacket temperature (°C),LED temperature (°C),Box temperature (°C),Sample RH (%),Span deviation,Mass concentration (μg/m³),Mass concentration (μg/m³),Mass concentration (μg/m³)
DateTimeUTC,F1_M11,P_M11,Q1_M11,Q2_M11,T1_M11,T2_M11,T3_M11,T4_M11,T5_M11,U1_M11,ZSPAN_M11,X2_M11,X0_M11,X1_M11
2021-12-14 17:00:00,,0820.9,5.00,0.00,24.5,23.7,00.0,33.5,26.4,09.1,0000.0,0007.37,0032.73,0004.83
2021-12-14 17:01:00,,0820.9,5.00,0.00,24.6,23.7,00.0,33.5,26.4,09.2,0000.0,0007.39,0033.82,0004.84
2021-12-14 17:02:00,,0821.0,5.00,0.00,24.5,23.7,00.0,33.5,26.3,09.2,0000.0,0007.37,0032.89,0004.84
2021-12-14 17:03:00,,0821.0,4.99,0.00,24.5,23.7,00.0,33.5,26.2,09.3,0000.0,0007.36,0031.33,0004.85
2021-12-14 17:04:00,,0821.0,5.02,0.00,24.4,23.6,00.0,33.5,26.2,09.7,0000.0,0007.39,0030.33,0004.88
2021-12-14 17:05:00,,0821.0,5.00,0.00,24.4,23.6,00.0,33.5,26.1,09.8,0000.0,0007.53,0030.19,0004.96
2021-12-14 17:06:00,,0821.0,5.00,0.00,24.4,23.5,00.0,33.4,26.1,09.8,0000.4,0007.52,0029.20,0005.04
2021-12-14 17:07:00,,0821.0,5.01,0.00,24.4,23.5,00.0,33.4,26.0,09.9,0000.0,0007.60,0030.21,0005.12
2021-12-14 17:08:00,,0821.0,4.99,0.00,24.3,23.4,00.0,33.4,26.0,10.0,0000.0,0007.77,0029.87,0005.23
2021-12-14 17:09:00,,0821.0,5.00,0.00,24.3,23.4,00.0,33.4,26.0,10.1,0001.1,0007.88,0030.13,0005.36
2021-12-14 17:10:00,,0821.0,5.02,0.00,24.3,23.4,00.0,33.4,25.9,10.3,0001.0,0007.98,0029.27,0005.50
2021-12-14 17:11:00,,0821.0,5.00,0.00,24.2,23.4,00.0,33.4,25.9,10.4,0000.5,0008.20,0029.74,0005.70
2021-12-14 17:12:00,,0821.0,5.00,0.00,24.2,23.4,00.0,33.3,25.9,10.1,0000.7,0008.41,0028.95,0005.90
2021-12-14 17:13:00,,0821.0,4.99,0.00,24.2,23.4,00.0,33.3,25.9,10.1,0000.7,0008.61,0029.45,0006.06
2021-12-14 17:14:00,,0821.0,5.00,0.00,24.2,23.3,00.0,33.3,25.9,10.0,0000.3,0008.81,0030.66,0006.20
2021-12-14 17:15:00,,0820.9,5.00,0.00,24.2,23.3,00.0,33.3,25.9,09.9,0000.4,0008.98,0030.30,0006.33
2021-12-14 17:16:00,,0821.0,4.99,0.00,24.2,23.4,00.0,33.3,25.9,09.8,0000.7,0009.02,0030.13,0006.41
2021-12-14 17:17:00,,0821.1,5.00,0.00,24.2,23.3,00.0,33.3,25.9,09.6,0002.5,0009.07,0030.36,0006.45
2021-12-14 17:18:00,,0821.0,5.00,0.00,24.2,23.4,00.0,33.2,25.9,09.7,0003.1,0009.14,0030.06,0006.51
2021-12-14 17:19:00,,0821.0,4.99,0.00,24.1,23.3,00.0,33.2,25.9,09.5,0003.1,0009.11,0030.55,0006.51
2021-12-14 17:20:00,,0821.0,5.00,0.00,24.1,23.4,00.0,33.2,25.9,09.4,0003.6,0009.03,0029.88,0006.48
2021-12-14 17:21:00,,0821.0,4.99,0.00,24.1,23.4,00.0,33.2,25.9,09.2,0004.8,0008.91,0029.38,0006.40
2021-12-14 17:22:00,,0820.9,4.99,0.00,24.1,23.4,00.0,33.2,25.8,09.2,0004.9,0008.68,0028.17,0006.29
2021-12-14 17:23:00,,0820.9,5.01,0.00,24.1,23.4,00.0,33.2,25.8,09.2,0005.1,0008.52,0029.64,0006.17
2021-12-14 17:24:00,,0820.9,4.99,0.00,24.1,23.4,00.0,33.2,25.8,09.1,0005.5,0008.41,0029.52,0006.07
2021-12-14 17:25:00,,0820.9,5.00,0.00,24.1,23.3,00.0,33.2,25.8,09.1,0005.5,0008.33,0029.53,0005.99
2021-12-14 17:26:00,,0820.9,5.00,0.00,24.1,23.3,00.0,33.2,25.8,09.0,0005.2,0008.17,0029.33,0005.90
2021-12-14 17:27:00,,0820.9,5.01,0.00,24.1,23.3,00.0,33.1,25.7,08.9,0005.4,0008.05,0029.21,0005.83
2021-12-14 17:28:00,,0820.9,4.99,0.00,24.0,23.3,00.0,33.1,25.7,08.9,0004.9,0008.03,0028.90,0005.77
2021-12-14 17:29:00,,0820.8,5.02,0.00,24.0,23.3,00.0,33.1,25.7,09.0,0004.6,0007.94,0028.69,0005.71
2021-12-14 17:30:00,,0820.9,4.99,0.00,24.0,23.3,00.0,33.1,25.7,08.9,0004.4,0007.90,0029.14,0005.67
2021-12-14 17:31:00,,0820.9,5.00,0.00,24.0,23.3,00.0,33.1,25.8,08.5,0004.5,0007.87,0028.83,0005.62
2021-12-14 17:32:00,,0820.9,4.99,0.00,24.0,23.3,00.0,33.1,25.7,08.6,0004.5,0007.83,0028.49,0005.58
2021-12-14 17:33:00,,0820.9,5.00,0.00,24.0,23.3,00.0,33.1,25.7,08.7,0005.0,0007.83,0028.56,0005.54
2021-12-14 17:34:00,,0820.9,5.01,0.00,24.0,23.3,00.0,33.1,25.7,08.9,0006.2,0007.83,0027.58,0005.51
2021-12-14 17:35:00,,0820.9,5.00,0.00,24.0,23.3,00.0,33.1,25.7,08.9,0006.9,0007.82,0027.53,0005.51
2021-12-14 17:36:00,,0820.9,5.00,0.00,24.1,23.4,00.0,33.1,25.8,08.6,0007.1,0007.72,0025.94,0005.47
2021-12-14 17:37:00,,0820.8,5.00,0.00,24.1,23.4,00.0,33.1,25.9,08.5,0007.7,0007.72,0025.71,0005.46
2021-12-14 17:38:00,,0820.8,5.01,0.00,24.1,23.4,00.0,33.1,25.9,08.6,0007.7,0007.74,0025.45,0005.44
2021-12-14 17:39:00,,0820.7,5.00,0.00,24.1,23.4,00.0,33.1,25.9,08.6,0007.5,0007.71,0025.82,0005.42
2021-12-14 17:40:00,,0820.7,5.00,0.00,24.1,23.5,00.0,33.1,26.0,08.4,0007.9,0007.67,0025.26,0005.40
2021-12-14 17:41:00,,0820.7,5.01,0.00,24.1,23.5,00.0,33.1,26.0,08.3,0008.8,0007.65,0023.64,0005.37
2021-12-14 17:42:00,,0820.7,5.00,0.00,24.2,23.5,00.0,33.1,26.0,08.4,0008.1,0007.63,0023.32,0005.36
2021-12-14 17:43:00,,0820.7,5.00,0.00,24.2,23.5,00.0,33.1,26.0,08.4,0007.6,0007.59,0022.48,0005.36
2021-12-14 17:44:00,,0820.6,5.01,0.00,24.2,23.6,00.0,33.1,26.0,08.3,0006.3,0007.60,0021.65,0005.37
2021-12-14 17:45:00,,0820.6,5.00,0.00,24.2,23.6,00.0,33.1,26.0,08.2,0005.1,0007.56,0020.02,0005.41
2021-12-14 17:46:00,,0820.6,5.00,0.00,24.2,23.6,00.0,33.1,26.1,08.2,0004.8,0007.53,0019.48,0005.45
2021-12-14 17:47:00,,0820.5,5.00,0.00,24.2,23.6,00.0,33.1,26.1,08.3,0005.4,0007.55,0019.72,0005.49
2021-12-14 17:48:00,,0820.4,5.00,0.00,24.3,23.6,00.0,33.1,26.1,08.3,0004.9,0007.59,0019.79,0005.53
2021-12-14 17:49:00,,0820.3,5.01,0.00,24.3,23.7,00.0,33.2,26.1,08.3,0004.6,0007.63,0020.31,0005.57
2021-12-14 17:50:00,,0820.3,5.00,0.00,24.3,23.7,00.0,33.2,26.1,08.2,0005.3,0007.58,0020.57,0005.60
2021-12-14 17:51:00,,0820.4,4.99,0.00,24.3,23.7,00.0,33.2,26.1,08.0,0005.6,0007.56,0020.02,0005.64
2021-12-14 17:52:00,,0820.3,5.00,0.00,24.4,23.7,00.0,33.2,26.2,08.0,0004.8,0007.55,0019.96,0005.69
2021-12-14 17:53:00,,0820.3,5.01,0.00,24.4,23.7,00.0,33.2,26.2,08.0,0003.2,0007.61,0019.60,0005.73
2021-12-14 17:54:00,,0820.3,4.99,0.00,24.4,23.8,00.0,33.2,26.3,08.0,0003.7,0007.72,0019.28,0005.78
2021-12-14 17:55:00,,0820.2,5.00,0.00,24.4,23.8,00.0,33.3,26.3,08.1,0002.3,0007.72,0019.84,0005.80
2021-12-14 17:56:00,,0820.2,5.00,0.00,24.5,23.8,00.0,33.3,26.3,08.1,0001.2,0007.68,0021.07,0005.78
2021-12-14 17:57:00,,0820.2,4.99,0.00,24.5,23.8,00.0,33.3,26.3,08.2,0000.7,0007.63,0021.03,0005.76
2021-12-14 17:58:00,,0820.2,5.01,0.00,24.5,23.9,00.0,33.3,26.4,08.3,-000.0,0007.61,0020.59,0005.76
2021-12-14 17:59:00,,0820.1,5.00,0.00,24.5,23.9,00.0,33.3,26.4,08.2,-000.0,0007.65,0021.86,0005.77
